Location: Dittelbrunn
(50.0738°N, 10.2196°E)
Time: 18:30:55
(UTC+00:00)

Lacrosse 5 rocket - Visible Passes

Search period start: 16 January 2021 00:00
Search period end: 26 January 2021 00:00
Orbit: 460 x 635 km, 57.0° (Epoch: 15 January)

Date Brightness Start Highest point End Pass type
(mag) Time Alt. Az. Time Alt. Az. Time Alt. Az.
16 Jan 3.5 04:04:26 20° NE 04:04:26 20° NE 04:06:03 10° ENE visible
16 Jan 1.8 05:40:04 21° NW 05:42:24 48° NNE 05:46:02 10° E visible
17 Jan 3.6 03:58:44 20° NE 03:58:44 20° NE 04:00:15 10° ENE visible
17 Jan 1.5 05:34:21 24° NW 05:36:31 56° NNE 05:40:12 10° ESE visible
18 Jan 3.7 03:53:03 19° ENE 03:53:03 19° ENE 03:54:27 10° ENE visible
18 Jan 1.3 05:28:41 28° NW 05:30:38 67° NNE 05:34:21 10° ESE visible
19 Jan 3.8 03:47:24 18° ENE 03:47:24 18° ENE 03:48:40 10° ENE visible
19 Jan 1.1 05:23:02 32° NW 05:24:43 80° NNE 05:28:28 10° ESE visible
20 Jan 4.0 03:41:48 17° ENE 03:41:48 17° ENE 03:42:53 10° E visible
20 Jan 1.0 05:17:26 39° WNW 05:18:47 83° SSW 05:22:31 10° SE visible
21 Jan 4.1 03:36:15 15° E 03:36:15 15° E 03:37:06 10° E visible
21 Jan 1.1 05:11:53 46° W 05:12:50 67° SW 05:16:33 10° SE visible
22 Jan 4.3 03:30:45 14° E 03:30:45 14° E 03:31:18 10° E visible
22 Jan 1.3 05:06:23 48° WSW 05:06:52 52° SW 05:10:30 10° SE visible
23 Jan 4.4 03:25:19 11° E 03:25:19 11° E 03:25:29 10° E visible
23 Jan 1.7 05:00:58 41° SW 05:00:58 41° SW 05:04:24 10° SSE visible
24 Jan 2.3 04:55:38 29° SSW 04:55:38 29° SSW 04:58:13 10° SSE visible
25 Jan 3.0 04:50:23 19° SSW 04:50:23 19° SSW 04:51:57 10° S visible
